START_TIME,STEP,MOV.,M34,t_acc.,L5,t_acc.,L18,t_acc.,L14,t_acc.
1980-11-15 06:00:13.280 ,2,0,0.,12.0,0.,12.0,0.,12.0,0.,12.0
1980-11-15 06:00:25.280 ,2,0,0.,12.0,0.,12.0,0.,12.0,0.,12.0
1980-11-15 06:00:37.280 ,1,1,0.,12.0,0.,12.0,0.,12.0,0.,12.0
1980-11-15 06:00:49.280 ,1,1,0.,12.0,0.,12.0,0.,12.0,0.,12.0
1980-11-15 06:01:01.280 ,1,0,0.,12.0,0.,12.0,0.,12.0,0.,12.0
1980-11-15 06:01:13.280 ,1,0,0.,12.0,0.,12.0,0.,12.0,0.,12.0
1980-11-15 06:01:25.280 ,0,1,0.,12.0,0.,12.0,0.,12.0,0.,12.0
1980-11-15 06:01:37.280 ,0,1,0.,12.0,0.,12.0,0.,12.0,0.,12.0
1980-11-15 06:01:49.280 ,0,0,0.,12.0,0.,12.0,0.,12.0,0.,12.0
1980-11-15 06:02:01.280 ,0,0,0.,12.0,0.,12.0,0.,12.0,0.,12.0
1980-11-15 06:02:13.280 ,0,1,0.,12.0,0.,12.0,0.,12.0,0.,12.0
1980-11-15 06:02:25.280 ,0,1,0.,12.0,0.,12.0,0.,12.0,0.,12.0
1980-11-15 06:02:37.280 ,0,0,0.,12.0,0.,12.0,0.,12.0,0.,12.0
1980-11-15 06:02:49.280 ,0,0,0.,12.0,0.,12.0,0.,12.0,0.,12.0
1980-11-15 06:03:01.280 ,1,1,0.,12.0,0.,12.0,0.,12.0,0.,12.0
1980-11-15 06:03:13.280 ,1,1,0.,12.0,0.,12.0,0.,12.0,0.,12.0
1980-11-15 06:03:25.280 ,1,0,0.,12.0,0.,12.0,0.,12.0,0.,12.0
1980-11-15 06:03:37.280 ,1,0,0.,12.0,0.,12.0,0.,12.0,0.,12.0
1980-11-15 06:03:49.280 ,2,1,0.,12.0,0.,12.0,0.,12.0,0.,12.0
1980-11-15 06:04:01.280 ,2,1,0.,12.0,0.,12.0,0.,12.0,0.,12.0
1980-11-15 06:04:13.280 ,2,0,0.,12.0,0.,12.0,0.,12.0,0.,12.0
1980-11-15 06:04:25.280 ,2,0,0.,12.0,0.,12.0,0.,12.0,0.,12.0
1980-11-15 06:04:37.280 ,3,1,0.,12.0,0.,12.0,0.,12.0,0.,12.0
1980-11-15 06:04:49.280 ,3,1,0.,12.0,0.,12.0,0.,12.0,0.,12.0
1980-11-15 06:05:01.280 ,3,0,0.,12.0,0.,12.0,0.,12.0,0.,12.0
1980-11-15 06:05:13.280 ,3,0,0.,12.0,0.,12.0,0.,12.0,0.,12.0
1980-11-15 06:05:25.280 ,4,1,0.,12.0,0.,12.0,0.,12.0,0.,12.0
1980-11-15 06:05:37.280 ,4,1,0.,12.0,0.,12.0,0.,12.0,0.,12.0
1980-11-15 06:05:49.280 ,4,0,0.,12.0,0.,12.0,0.,12.0,0.,12.0
1980-11-15 06:06:01.280 ,4,0,0.,12.0,0.,12.0,0.,12.0,0.,12.0
1980-11-15 06:06:13.280 ,5,1,0.,12.0,0.,12.0,0.,12.0,0.,12.0
1980-11-15 06:06:25.280 ,5,1,0.,12.0,0.,12.0,0.,12.0,0.,12.0
1980-11-15 06:06:37.280 ,5,0,0.,12.0,0.,12.0,0.,12.0,0.,12.0
1980-11-15 06:06:49.280 ,5,0,0.,12.0,0.,12.0,0.,12.0,0.,12.0
1980-11-15 06:07:01.280 ,6,1,0.,12.0,0.,12.0,0.,12.0,0.,12.0
1980-11-15 06:07:13.280 ,6,1,0.,12.0,0.,12.0,0.,12.0,0.,12.0
1980-11-15 06:07:25.280 ,6,0,0.,12.0,0.,12.0,0.,12.0,0.,12.0
1980-11-15 06:07:37.280 ,6,0,0.,12.0,0.,12.0,0.,12.0,0.,12.0
1980-11-15 06:07:49.280 ,7,1,0.,12.0,0.,12.0,0.,12.0,0.,12.0
1980-11-15 06:08:01.280 ,7,1,0.,12.0,2.,12.0,0.,12.0,1.,12.0
1980-11-15 06:08:13.280 ,7,0,0.,12.0,5.,12.0,0.,12.0,0.,12.0
1980-11-15 06:08:25.280 ,7,0,0.,12.0,5.,12.0,0.,12.0,0.,12.0
1980-11-15 06:08:37.280 ,7,1,0.,12.0,5.,12.0,0.,12.0,0.,12.0
1980-11-15 06:08:49.280 ,7,1,0.,12.0,2.,12.0,0.,12.0,0.,12.0
1980-11-15 06:09:01.280 ,7,0,0.,12.0,2.,12.0,0.,12.0,0.,12.0
1980-11-15 06:09:13.280 ,7,0,0.,12.0,4.,12.0,0.,12.0,0.,12.0
1980-11-15 06:09:25.280 ,6,1,0.,12.0,2.,12.0,0.,12.0,0.,12.0
1980-11-15 06:09:37.280 ,6,1,0.,12.0,2.,12.0,0.,12.0,0.,12.0
1980-11-15 06:09:49.280 ,6,0,0.,12.0,0.,12.0,0.,12.0,0.,12.0
1980-11-15 06:10:01.280 ,6,0,0.,12.0,0.,12.0,0.,12.0,0.,12.0
1980-11-15 06:10:13.280 ,5,1,0.,12.0,0.,12.0,0.,12.0,0.,12.0
1980-11-15 06:10:25.280 ,5,1,0.,12.0,0.,12.0,0.,12.0,0.,12.0
1980-11-15 06:10:37.280 ,5,0,0.,12.0,0.,12.0,0.,12.0,0.,12.0
1980-11-15 06:10:49.280 ,5,0,0.,12.0,0.,12.0,0.,12.0,0.,12.0
1980-11-15 06:11:01.280 ,4,1,0.,12.0,0.,12.0,0.,12.0,0.,12.0
1980-11-15 06:11:13.280 ,4,1,0.,12.0,0.,12.0,0.,12.0,0.,12.0
1980-11-15 06:11:25.280 ,4,0,0.,12.0,0.,12.0,0.,12.0,0.,12.0
1980-11-15 06:11:37.280 ,4,0,0.,12.0,0.,12.0,0.,12.0,0.,12.0
1980-11-15 06:11:49.280 ,3,1,0.,12.0,0.,12.0,0.,12.0,1.,12.0
1980-11-15 06:12:01.280 ,3,1,0.,12.0,0.,12.0,0.,12.0,0.,12.0
1980-11-15 06:12:13.280 ,3,0,0.,12.0,0.,12.0,0.,12.0,0.,12.0
1980-11-15 06:12:25.280 ,3,0,0.,12.0,0.,12.0,0.,12.0,0.,12.0
1980-11-15 06:12:37.280 ,2,1,0.,12.0,0.,12.0,0.,12.0,0.,12.0
1980-11-15 06:12:49.280 ,2,1,0.,12.0,0.,12.0,0.,12.0,0.,12.0
1980-11-15 06:13:01.280 ,2,0,0.,12.0,0.,12.0,0.,12.0,0.,12.0
1980-11-15 06:13:13.280 ,2,0,0.,12.0,0.,12.0,0.,12.0,0.,12.0
1980-11-15 06:13:25.280 ,1,1,0.,12.0,0.,12.0,0.,12.0,0.,12.0
1980-11-15 06:13:37.280 ,1,1,0.,12.0,0.,12.0,0.,12.0,0.,12.0
1980-11-15 06:13:49.280 ,1,0,0.,12.0,0.,12.0,0.,12.0,0.,12.0
1980-11-15 06:14:01.280 ,1,0,0.,12.0,0.,12.0,0.,12.0,0.,12.0
1980-11-15 06:14:13.280 ,0,1,0.,12.0,0.,12.0,0.,12.0,0.,12.0
1980-11-15 06:14:25.280 ,0,1,0.,12.0,0.,12.0,0.,12.0,0.,12.0
1980-11-15 06:14:37.280 ,0,0,0.,12.0,0.,12.0,0.,12.0,0.,12.0
1980-11-15 06:14:49.280 ,0,0,0.,12.0,0.,12.0,0.,12.0,0.,12.0
1980-11-15 06:15:01.280 ,0,1,0.,12.0,0.,12.0,0.,12.0,0.,12.0
1980-11-15 06:15:13.280 ,0,1,0.,12.0,0.,12.0,0.,12.0,0.,12.0
1980-11-15 06:15:25.280 ,0,0,0.,12.0,0.,12.0,0.,12.0,0.,12.0
1980-11-15 06:15:37.280 ,0,0,0.,12.0,0.,12.0,0.,12.0,0.,12.0
1980-11-15 06:15:49.280 ,1,1,0.,12.0,0.,12.0,0.,12.0,0.,12.0
1980-11-15 06:16:01.280 ,1,1,0.,12.0,0.,12.0,0.,12.0,0.,12.0
1980-11-15 06:16:13.280 ,1,0,0.,12.0,0.,12.0,0.,12.0,0.,12.0
1980-11-15 06:16:25.280 ,1,0,0.,12.0,0.,12.0,0.,12.0,0.,12.0
1980-11-15 06:16:37.280 ,2,1,0.,12.0,0.,12.0,0.,12.0,0.,12.0
1980-11-15 06:16:49.280 ,2,1,0.,12.0,0.,12.0,0.,12.0,0.,12.0
1980-11-15 06:17:01.280 ,2,0,0.,12.0,0.,12.0,0.,12.0,0.,12.0
1980-11-15 06:17:13.280 ,2,0,0.,12.0,0.,12.0,0.,12.0,0.,12.0
1980-11-15 06:17:25.280 ,3,1,0.,12.0,0.,12.0,0.,12.0,0.,12.0
1980-11-15 06:17:37.280 ,3,1,0.,12.0,0.,12.0,0.,12.0,0.,12.0
1980-11-15 06:17:49.280 ,3,0,0.,12.0,0.,12.0,0.,12.0,0.,12.0
1980-11-15 06:18:01.280 ,3,0,0.,12.0,0.,12.0,0.,12.0,0.,12.0
1980-11-15 06:18:13.280 ,4,1,0.,12.0,0.,12.0,0.,12.0,0.,12.0
1980-11-15 06:18:25.280 ,4,1,0.,12.0,0.,12.0,0.,12.0,0.,12.0
1980-11-15 06:18:37.280 ,4,0,0.,12.0,0.,12.0,0.,12.0,0.,12.0
1980-11-15 06:18:49.280 ,4,0,0.,12.0,0.,12.0,0.,12.0,0.,12.0
1980-11-15 06:19:01.280 ,5,1,0.,12.0,0.,12.0,0.,12.0,0.,12.0
1980-11-15 06:19:13.280 ,5,1,0.,12.0,0.,12.0,0.,12.0,0.,12.0
1980-11-15 06:19:25.280 ,5,0,0.,12.0,0.,12.0,0.,12.0,0.,12.0
1980-11-15 06:19:37.280 ,5,0,0.,12.0,0.,12.0,0.,12.0,0.,12.0
1980-11-15 06:19:49.280 ,6,1,0.,12.0,0.,12.0,0.,12.0,0.,12.0
1980-11-15 06:20:01.280 ,6,1,0.,12.0,0.,12.0,0.,12.0,0.,12.0
1980-11-15 06:20:13.280 ,6,0,0.,12.0,0.,12.0,0.,12.0,0.,12.0
1980-11-15 06:20:25.280 ,6,0,0.,12.0,0.,12.0,0.,12.0,0.,12.0
1980-11-15 06:20:37.280 ,7,1,0.,12.0,0.,12.0,0.,12.0,0.,12.0
1980-11-15 06:20:49.280 ,7,1,0.,12.0,1.,12.0,0.,12.0,0.,12.0
1980-11-15 06:21:01.280 ,7,0,0.,12.0,4.,12.0,0.,12.0,0.,12.0
1980-11-15 06:21:13.280 ,7,0,0.,12.0,1.,12.0,0.,12.0,0.,12.0
1980-11-15 06:21:25.280 ,7,1,0.,12.0,3.,12.0,0.,12.0,0.,12.0
1980-11-15 06:21:37.280 ,7,1,0.,12.0,4.,12.0,0.,12.0,0.,12.0
1980-11-15 06:21:49.280 ,7,0,0.,12.0,4.,12.0,0.,12.0,0.,12.0
1980-11-15 06:22:01.280 ,7,0,0.,12.0,5.,12.0,0.,12.0,0.,12.0
1980-11-15 06:22:13.280 ,6,1,0.,12.0,1.,12.0,0.,12.0,0.,12.0
1980-11-15 06:22:25.280 ,6,1,0.,12.0,3.,12.0,0.,12.0,0.,12.0
1980-11-15 06:22:37.280 ,6,0,0.,12.0,0.,12.0,0.,12.0,0.,12.0
1980-11-15 06:22:49.280 ,6,0,0.,12.0,0.,12.0,0.,12.0,0.,12.0
1980-11-15 06:23:01.280 ,5,1,0.,12.0,0.,12.0,0.,12.0,0.,12.0
1980-11-15 06:23:13.280 ,5,1,0.,12.0,0.,12.0,0.,12.0,0.,12.0
1980-11-15 06:23:25.280 ,5,0,0.,12.0,0.,12.0,0.,12.0,0.,12.0
1980-11-15 06:23:37.280 ,5,0,0.,12.0,0.,12.0,0.,12.0,0.,12.0
1980-11-15 06:23:49.280 ,4,1,0.,12.0,0.,12.0,0.,12.0,0.,12.0
1980-11-15 06:24:01.280 ,4,1,0.,12.0,0.,12.0,0.,12.0,0.,12.0
1980-11-15 06:24:13.280 ,4,0,0.,12.0,0.,12.0,0.,12.0,0.,12.0
1980-11-15 06:24:25.280 ,4,0,0.,12.0,0.,12.0,0.,12.0,0.,12.0
1980-11-15 06:24:37.280 ,3,1,0.,12.0,0.,12.0,0.,12.0,0.,12.0
1980-11-15 06:24:49.280 ,3,1,0.,12.0,0.,12.0,0.,12.0,0.,12.0
1980-11-15 06:25:01.280 ,3,0,0.,12.0,0.,12.0,0.,12.0,0.,12.0
1980-11-15 06:25:13.280 ,3,0,0.,12.0,0.,12.0,0.,12.0,0.,12.0
1980-11-15 06:25:25.280 ,2,1,0.,12.0,0.,12.0,0.,12.0,0.,12.0
1980-11-15 06:25:37.280 ,2,1,0.,12.0,0.,12.0,0.,12.0,0.,12.0
1980-11-15 06:25:49.280 ,2,0,0.,12.0,0.,12.0,0.,12.0,0.,12.0
1980-11-15 06:26:01.280 ,2,0,0.,12.0,0.,12.0,0.,12.0,0.,12.0
1980-11-15 06:26:13.280 ,1,1,0.,12.0,0.,12.0,0.,12.0,0.,12.0
1980-11-15 06:26:25.280 ,1,1,0.,12.0,0.,12.0,0.,12.0,0.,12.0
1980-11-15 06:26:37.280 ,1,0,0.,12.0,0.,12.0,0.,12.0,1.,12.0
1980-11-15 06:26:49.280 ,1,0,0.,12.0,0.,12.0,0.,12.0,0.,12.0
1980-11-15 06:27:01.280 ,0,1,0.,12.0,0.,12.0,0.,12.0,0.,12.0
1980-11-15 06:27:13.280 ,0,1,0.,12.0,0.,12.0,0.,12.0,0.,12.0
1980-11-15 06:27:25.280 ,0,0,0.,12.0,0.,12.0,0.,12.0,0.,12.0
1980-11-15 06:27:37.280 ,0,0,0.,12.0,0.,12.0,0.,12.0,0.,12.0
1980-11-15 06:27:49.280 ,0,1,0.,12.0,0.,12.0,0.,12.0,0.,12.0
1980-11-15 06:28:01.280 ,0,1,0.,12.0,0.,12.0,0.,12.0,0.,12.0
1980-11-15 06:28:13.280 ,0,0,0.,12.0,0.,12.0,0.,12.0,0.,12.0
1980-11-15 06:28:25.280 ,0,0,0.,12.0,0.,12.0,0.,12.0,0.,12.0
1980-11-15 06:28:37.280 ,1,1,0.,12.0,0.,12.0,0.,12.0,0.,12.0
1980-11-15 06:28:49.280 ,1,1,0.,12.0,0.,12.0,0.,12.0,0.,12.0
1980-11-15 06:29:01.280 ,1,0,0.,12.0,0.,12.0,0.,12.0,0.,12.0
1980-11-15 06:29:13.280 ,1,0,0.,12.0,0.,12.0,0.,12.0,0.,12.0
1980-11-15 06:29:25.280 ,2,1,0.,12.0,0.,12.0,0.,12.0,0.,12.0
1980-11-15 06:29:37.280 ,2,1,0.,12.0,0.,12.0,0.,12.0,0.,12.0
1980-11-15 06:29:49.280 ,2,0,0.,12.0,0.,12.0,0.,12.0,0.,12.0
1980-11-15 06:30:01.280 ,2,0,0.,12.0,0.,12.0,0.,12.0,0.,12.0
1980-11-15 06:30:13.280 ,3,1,0.,12.0,0.,12.0,0.,12.0,0.,12.0
1980-11-15 06:30:25.280 ,3,1,0.,12.0,0.,12.0,0.,12.0,0.,12.0
1980-11-15 06:30:37.280 ,3,0,0.,12.0,0.,12.0,0.,12.0,0.,12.0
1980-11-15 06:30:49.280 ,3,0,0.,12.0,0.,12.0,0.,12.0,0.,12.0
1980-11-15 06:31:01.280 ,4,1,0.,12.0,0.,12.0,0.,12.0,0.,12.0
1980-11-15 06:31:13.280 ,4,1,0.,12.0,0.,12.0,0.,12.0,0.,12.0
1980-11-15 06:31:25.280 ,4,0,0.,12.0,0.,12.0,0.,12.0,0.,12.0
1980-11-15 06:31:37.280 ,4,0,0.,12.0,1.,12.0,0.,12.0,0.,12.0
1980-11-15 06:31:49.280 ,5,1,0.,12.0,0.,12.0,0.,12.0,0.,12.0
1980-11-15 06:32:01.280 ,5,1,0.,12.0,0.,12.0,0.,12.0,0.,12.0
1980-11-15 06:32:13.280 ,5,0,0.,12.0,0.,12.0,0.,12.0,0.,12.0
1980-11-15 06:32:25.280 ,5,0,0.,12.0,0.,12.0,0.,12.0,1.,12.0
1980-11-15 06:32:37.280 ,6,1,0.,12.0,0.,12.0,0.,12.0,0.,12.0
1980-11-15 06:32:49.280 ,6,1,0.,12.0,0.,12.0,0.,12.0,0.,12.0
1980-11-15 06:33:01.280 ,6,0,0.,12.0,1.,12.0,0.,12.0,0.,12.0
1980-11-15 06:33:13.280 ,6,0,0.,12.0,0.,12.0,0.,12.0,0.,12.0
1980-11-15 06:33:25.280 ,7,1,0.,12.0,0.,12.0,0.,12.0,0.,12.0
1980-11-15 06:33:37.280 ,7,1,0.,12.0,2.,12.0,0.,12.0,0.,12.0
1980-11-15 06:33:49.280 ,7,0,0.,12.0,4.,12.0,0.,12.0,0.,12.0
1980-11-15 06:34:01.280 ,7,0,0.,12.0,2.,12.0,0.,12.0,0.,12.0
1980-11-15 06:34:13.280 ,7,1,0.,12.0,4.,12.0,0.,12.0,0.,12.0
1980-11-15 06:34:25.280 ,7,1,0.,12.0,3.,12.0,0.,12.0,0.,12.0
1980-11-15 06:34:37.280 ,7,0,0.,12.0,6.,12.0,0.,12.0,0.,12.0
1980-11-15 06:34:49.280 ,7,0,0.,12.0,9.,12.0,0.,12.0,0.,12.0
1980-11-15 06:35:01.280 ,6,1,0.,12.0,4.,12.0,0.,12.0,0.,12.0
1980-11-15 06:35:13.280 ,6,1,0.,12.0,1.,12.0,0.,12.0,0.,12.0
1980-11-15 06:35:25.280 ,6,0,0.,12.0,0.,12.0,0.,12.0,0.,12.0
1980-11-15 06:35:37.280 ,6,0,0.,12.0,0.,12.0,0.,12.0,0.,12.0
1980-11-15 06:35:49.280 ,5,1,0.,12.0,0.,12.0,0.,12.0,0.,12.0
1980-11-15 06:36:01.280 ,5,1,0.,12.0,0.,12.0,0.,12.0,0.,12.0
1980-11-15 06:36:13.280 ,5,0,0.,12.0,0.,12.0,0.,12.0,0.,12.0
1980-11-15 06:36:25.280 ,5,0,0.,12.0,0.,12.0,0.,12.0,0.,12.0
1980-11-15 06:36:37.280 ,4,1,0.,12.0,0.,12.0,0.,12.0,0.,12.0
1980-11-15 06:36:49.280 ,4,1,0.,12.0,0.,12.0,0.,12.0,0.,12.0
1980-11-15 06:37:01.280 ,4,0,0.,12.0,0.,12.0,0.,12.0,0.,12.0
1980-11-15 06:37:13.280 ,4,0,0.,12.0,0.,12.0,0.,12.0,0.,12.0
1980-11-15 06:37:25.280 ,3,1,0.,12.0,0.,12.0,0.,12.0,0.,12.0
1980-11-15 06:37:37.280 ,3,1,0.,12.0,0.,12.0,0.,12.0,0.,12.0
1980-11-15 06:37:49.280 ,3,0,0.,12.0,0.,12.0,0.,12.0,0.,12.0
1980-11-15 06:38:01.280 ,3,0,0.,12.0,0.,12.0,0.,12.0,0.,12.0
1980-11-15 06:38:13.280 ,2,1,0.,12.0,0.,12.0,0.,12.0,0.,12.0
1980-11-15 06:38:25.280 ,2,1,0.,12.0,0.,12.0,0.,12.0,0.,12.0
1980-11-15 06:38:37.280 ,2,0,0.,12.0,0.,12.0,0.,12.0,0.,12.0
1980-11-15 06:38:49.280 ,2,0,0.,12.0,0.,12.0,0.,12.0,0.,12.0
1980-11-15 06:39:01.280 ,1,1,0.,12.0,0.,12.0,0.,12.0,0.,12.0
1980-11-15 06:39:13.280 ,1,1,0.,12.0,0.,12.0,0.,12.0,0.,12.0
1980-11-15 06:39:25.280 ,1,0,0.,12.0,0.,12.0,0.,12.0,0.,12.0
1980-11-15 06:39:37.280 ,1,0,0.,12.0,0.,12.0,0.,12.0,0.,12.0
1980-11-15 06:39:49.280 ,0,1,0.,12.0,0.,12.0,0.,12.0,0.,12.0
1980-11-15 06:40:01.280 ,0,1,0.,12.0,0.,12.0,0.,12.0,0.,12.0
1980-11-15 06:40:13.280 ,0,0,0.,12.0,0.,12.0,0.,12.0,0.,12.0
1980-11-15 06:40:25.280 ,0,0,0.,12.0,0.,12.0,0.,12.0,0.,12.0
1980-11-15 06:40:37.280 ,0,1,0.,12.0,0.,12.0,0.,12.0,0.,12.0
1980-11-15 06:40:49.280 ,0,1,0.,12.0,0.,12.0,0.,12.0,0.,12.0
1980-11-15 06:41:01.280 ,0,0,0.,12.0,0.,12.0,0.,12.0,0.,12.0
1980-11-15 06:41:13.280 ,0,0,0.,12.0,0.,12.0,0.,12.0,0.,12.0
1980-11-15 06:41:25.280 ,1,1,0.,12.0,0.,12.0,0.,12.0,0.,12.0
1980-11-15 06:41:37.280 ,1,1,0.,12.0,0.,12.0,0.,12.0,0.,12.0
1980-11-15 06:41:49.280 ,1,0,0.,12.0,0.,12.0,0.,12.0,0.,12.0
1980-11-15 06:42:01.280 ,1,0,0.,12.0,0.,12.0,0.,12.0,0.,12.0
1980-11-15 06:42:13.280 ,2,1,0.,12.0,0.,12.0,0.,12.0,0.,12.0
1980-11-15 06:42:25.280 ,2,1,0.,12.0,0.,12.0,0.,12.0,0.,12.0
1980-11-15 06:42:37.280 ,2,0,0.,12.0,0.,12.0,0.,12.0,0.,12.0
1980-11-15 06:42:49.280 ,2,0,0.,12.0,0.,12.0,0.,12.0,0.,12.0
1980-11-15 06:43:01.280 ,3,1,0.,12.0,0.,12.0,0.,12.0,0.,12.0
1980-11-15 06:43:13.280 ,3,1,0.,12.0,0.,12.0,0.,12.0,0.,12.0
1980-11-15 06:43:25.280 ,3,0,0.,12.0,0.,12.0,0.,12.0,0.,12.0
1980-11-15 06:43:37.280 ,3,0,0.,12.0,0.,12.0,0.,12.0,0.,12.0
1980-11-15 06:43:49.280 ,4,1,0.,12.0,0.,12.0,0.,12.0,0.,12.0
1980-11-15 06:44:01.280 ,4,1,0.,12.0,0.,12.0,0.,12.0,0.,12.0
1980-11-15 06:44:13.280 ,4,0,0.,12.0,0.,12.0,0.,12.0,0.,12.0
1980-11-15 06:44:25.280 ,4,0,0.,12.0,0.,12.0,0.,12.0,0.,12.0
1980-11-15 06:44:37.280 ,5,1,0.,12.0,0.,12.0,0.,12.0,0.,12.0
1980-11-15 06:44:49.280 ,5,1,0.,12.0,0.,12.0,0.,12.0,0.,12.0
1980-11-15 06:45:01.280 ,5,0,0.,12.0,0.,12.0,0.,12.0,0.,12.0
1980-11-15 06:45:13.280 ,5,0,0.,12.0,0.,12.0,0.,12.0,0.,12.0
1980-11-15 06:45:25.280 ,6,1,0.,12.0,0.,12.0,0.,12.0,0.,12.0
1980-11-15 06:45:37.280 ,6,1,0.,12.0,0.,12.0,0.,12.0,0.,12.0
1980-11-15 06:45:49.280 ,6,0,0.,12.0,0.,12.0,0.,12.0,0.,12.0
1980-11-15 06:46:01.280 ,6,0,0.,12.0,0.,12.0,0.,12.0,0.,12.0
1980-11-15 06:46:13.280 ,7,1,0.,12.0,0.,12.0,0.,12.0,0.,12.0
1980-11-15 06:46:25.280 ,7,1,0.,12.0,2.,12.0,0.,12.0,0.,12.0
1980-11-15 06:46:37.280 ,7,0,0.,12.0,5.,12.0,0.,12.0,0.,12.0
1980-11-15 06:46:49.280 ,7,0,0.,12.0,4.,12.0,0.,12.0,0.,12.0
1980-11-15 06:47:01.280 ,7,1,0.,12.0,5.,12.0,0.,12.0,0.,12.0
1980-11-15 06:47:13.280 ,7,1,0.,12.0,4.,12.0,0.,12.0,0.,12.0
1980-11-15 06:47:25.280 ,7,0,0.,12.0,8.,12.0,0.,12.0,0.,12.0
1980-11-15 06:47:37.280 ,7,0,0.,12.0,3.,12.0,0.,12.0,0.,12.0
1980-11-15 06:47:49.280 ,6,1,0.,12.0,5.,12.0,0.,12.0,0.,12.0
1980-11-15 06:48:01.280 ,6,1,0.,12.0,3.,12.0,0.,12.0,0.,12.0
1980-11-15 06:48:13.280 ,6,0,0.,12.0,0.,12.0,0.,12.0,0.,12.0
1980-11-15 06:48:25.280 ,6,0,0.,12.0,0.,12.0,0.,12.0,0.,12.0
1980-11-15 06:48:37.280 ,5,1,0.,12.0,0.,12.0,0.,12.0,0.,12.0
1980-11-15 06:48:49.280 ,5,1,0.,12.0,0.,12.0,0.,12.0,0.,12.0
1980-11-15 06:49:01.280 ,5,0,0.,12.0,0.,12.0,0.,12.0,0.,12.0
1980-11-15 06:49:13.280 ,5,0,0.,12.0,0.,12.0,0.,12.0,0.,12.0
1980-11-15 06:49:25.280 ,4,1,0.,12.0,0.,12.0,0.,12.0,0.,12.0
1980-11-15 06:49:37.280 ,4,1,0.,12.0,0.,12.0,0.,12.0,0.,12.0
1980-11-15 06:49:49.280 ,4,0,0.,12.0,0.,12.0,0.,12.0,0.,12.0
1980-11-15 06:50:01.280 ,4,0,0.,12.0,0.,12.0,0.,12.0,0.,12.0
1980-11-15 06:50:13.280 ,3,1,0.,12.0,0.,12.0,0.,12.0,0.,12.0
1980-11-15 06:50:25.280 ,3,1,0.,12.0,0.,12.0,0.,12.0,0.,12.0
1980-11-15 06:50:37.280 ,3,0,0.,12.0,0.,12.0,0.,12.0,0.,12.0
1980-11-15 06:50:49.280 ,3,0,0.,12.0,0.,12.0,0.,12.0,0.,12.0
1980-11-15 06:51:01.280 ,2,1,0.,12.0,0.,12.0,0.,12.0,0.,12.0
1980-11-15 06:51:13.280 ,2,1,0.,12.0,0.,12.0,0.,12.0,0.,12.0
1980-11-15 06:51:25.280 ,2,0,0.,12.0,0.,12.0,0.,12.0,0.,12.0
1980-11-15 06:51:37.280 ,2,0,0.,12.0,0.,12.0,0.,12.0,0.,12.0
1980-11-15 06:51:49.280 ,1,1,0.,12.0,0.,12.0,0.,12.0,0.,12.0
1980-11-15 06:52:01.280 ,1,1,0.,12.0,0.,12.0,0.,12.0,0.,12.0
1980-11-15 06:52:13.280 ,1,0,0.,12.0,0.,12.0,0.,12.0,0.,12.0
1980-11-15 06:52:25.280 ,1,0,0.,12.0,0.,12.0,0.,12.0,0.,12.0
1980-11-15 06:52:37.280 ,0,1,0.,12.0,0.,12.0,0.,12.0,0.,12.0
1980-11-15 06:52:49.280 ,0,1,0.,12.0,0.,12.0,0.,12.0,0.,12.0
1980-11-15 06:53:01.280 ,0,0,0.,12.0,0.,12.0,0.,12.0,0.,12.0
1980-11-15 06:53:13.280 ,0,0,0.,12.0,0.,12.0,0.,12.0,0.,12.0
1980-11-15 06:53:25.280 ,0,1,0.,12.0,0.,12.0,0.,12.0,0.,12.0
1980-11-15 06:53:37.280 ,0,1,0.,12.0,0.,12.0,0.,12.0,0.,12.0
1980-11-15 06:53:49.280 ,0,0,0.,12.0,0.,12.0,0.,12.0,0.,12.0
1980-11-15 06:54:01.280 ,0,0,0.,12.0,0.,12.0,0.,12.0,0.,12.0
1980-11-15 06:54:13.280 ,1,1,0.,12.0,0.,12.0,0.,12.0,0.,12.0
1980-11-15 06:54:25.280 ,1,1,0.,12.0,0.,12.0,0.,12.0,0.,12.0
1980-11-15 06:54:37.280 ,1,0,0.,12.0,0.,12.0,0.,12.0,0.,12.0
1980-11-15 06:54:49.280 ,1,0,0.,12.0,0.,12.0,0.,12.0,0.,12.0
1980-11-15 06:55:01.280 ,2,1,0.,12.0,0.,12.0,0.,12.0,0.,12.0
1980-11-15 06:55:13.280 ,2,1,0.,12.0,0.,12.0,0.,12.0,0.,12.0
1980-11-15 06:55:25.280 ,2,0,0.,12.0,0.,12.0,0.,12.0,0.,12.0
1980-11-15 06:55:37.280 ,2,0,0.,12.0,0.,12.0,0.,12.0,0.,12.0
1980-11-15 06:55:49.280 ,3,1,0.,12.0,0.,12.0,0.,12.0,0.,12.0
1980-11-15 06:56:01.280 ,3,1,0.,12.0,0.,12.0,0.,12.0,0.,12.0
1980-11-15 06:56:13.280 ,3,0,0.,12.0,0.,12.0,0.,12.0,0.,12.0
1980-11-15 06:56:25.280 ,3,0,0.,12.0,0.,12.0,0.,12.0,0.,12.0
1980-11-15 06:56:37.280 ,4,1,0.,12.0,0.,12.0,0.,12.0,0.,12.0
1980-11-15 06:56:49.280 ,4,1,0.,12.0,0.,12.0,0.,12.0,0.,12.0
1980-11-15 06:57:01.280 ,4,0,0.,12.0,0.,12.0,0.,12.0,0.,12.0
1980-11-15 06:57:13.280 ,4,0,0.,12.0,0.,12.0,0.,12.0,0.,12.0
1980-11-15 06:57:25.280 ,5,1,0.,12.0,0.,12.0,0.,12.0,0.,12.0
1980-11-15 06:57:37.280 ,5,1,0.,12.0,0.,12.0,0.,12.0,0.,12.0
1980-11-15 06:57:49.280 ,0,0,0.,12.0,0.,12.0,0.,12.0,0.,12.0
1980-11-15 06:58:01.280 ,0,0,0.,12.0,0.,12.0,0.,12.0,0.,12.0
1980-11-15 06:59:59.480 ,0,0,,0,,0,,0,,0
1980-11-15 07:00:11.480 ,0,0,0.,12.0,4.,12.0,0.,12.0,0.,12.0
1980-11-15 07:00:13.280 ,0,0,0.,12.0,0.,12.0,0.,12.0,0.,12.0
1980-11-15 07:00:25.280 ,0,0,0.,12.0,5.,12.0,0.,12.0,0.,12.0
1980-11-15 07:00:37.280 ,6,1,0.,12.0,4.,12.0,0.,12.0,0.,12.0
1980-11-15 07:00:49.280 ,6,1,0.,12.0,2.,12.0,0.,12.0,0.,12.0
1980-11-15 07:01:01.280 ,6,0,0.,12.0,0.,12.0,0.,12.0,0.,12.0
1980-11-15 07:01:13.280 ,6,0,0.,12.0,0.,12.0,0.,12.0,0.,12.0
1980-11-15 07:01:25.280 ,5,1,0.,12.0,0.,12.0,0.,12.0,0.,12.0
1980-11-15 07:01:37.280 ,5,1,0.,12.0,0.,12.0,0.,12.0,0.,12.0
1980-11-15 07:01:49.280 ,5,0,0.,12.0,0.,12.0,0.,12.0,0.,12.0
1980-11-15 07:02:01.280 ,5,0,0.,12.0,0.,12.0,0.,12.0,0.,12.0
1980-11-15 07:02:13.280 ,4,1,0.,12.0,0.,12.0,0.,12.0,0.,12.0
1980-11-15 07:02:25.280 ,4,1,0.,12.0,0.,12.0,0.,12.0,0.,12.0
1980-11-15 07:02:37.280 ,4,0,0.,12.0,0.,12.0,0.,12.0,0.,12.0
1980-11-15 07:02:49.280 ,4,0,0.,12.0,0.,12.0,0.,12.0,0.,12.0
1980-11-15 07:03:01.280 ,3,1,0.,12.0,0.,12.0,0.,12.0,0.,12.0
1980-11-15 07:03:13.280 ,3,1,0.,12.0,0.,12.0,0.,12.0,0.,12.0
1980-11-15 07:03:25.280 ,3,0,0.,12.0,0.,12.0,0.,12.0,0.,12.0
1980-11-15 07:03:37.280 ,3,0,0.,12.0,0.,12.0,0.,12.0,0.,12.0
1980-11-15 07:03:49.280 ,2,1,0.,12.0,0.,12.0,0.,12.0,0.,12.0
1980-11-15 07:04:01.280 ,2,1,0.,12.0,0.,12.0,0.,12.0,0.,12.0
1980-11-15 07:04:13.280 ,2,0,0.,12.0,0.,12.0,0.,12.0,0.,12.0
1980-11-15 07:04:25.280 ,2,0,0.,12.0,0.,12.0,0.,12.0,0.,12.0
1980-11-15 07:04:37.280 ,1,1,0.,12.0,0.,12.0,0.,12.0,0.,12.0
1980-11-15 07:04:49.280 ,1,1,0.,12.0,0.,12.0,0.,12.0,0.,12.0
1980-11-15 07:05:01.280 ,1,0,0.,12.0,0.,12.0,0.,12.0,0.,12.0
1980-11-15 07:05:13.280 ,1,0,0.,12.0,0.,12.0,0.,12.0,0.,12.0
1980-11-15 07:05:25.280 ,0,1,0.,12.0,0.,12.0,0.,12.0,0.,12.0
1980-11-15 07:05:37.280 ,0,1,0.,12.0,0.,12.0,0.,12.0,0.,12.0
1980-11-15 07:05:49.280 ,0,0,0.,12.0,0.,12.0,0.,12.0,0.,12.0
1980-11-15 07:06:01.280 ,0,0,0.,12.0,0.,12.0,0.,12.0,0.,12.0
1980-11-15 07:06:13.280 ,0,1,0.,12.0,0.,12.0,0.,12.0,0.,12.0
1980-11-15 07:06:25.280 ,0,1,0.,12.0,0.,12.0,0.,12.0,0.,12.0
1980-11-15 07:06:37.280 ,0,0,0.,12.0,0.,12.0,0.,12.0,0.,12.0
1980-11-15 07:06:49.280 ,0,0,0.,12.0,0.,12.0,0.,12.0,0.,12.0
1980-11-15 07:07:01.280 ,1,1,0.,12.0,0.,12.0,0.,12.0,0.,12.0
1980-11-15 07:07:13.280 ,1,1,0.,12.0,0.,12.0,0.,12.0,0.,12.0
1980-11-15 07:07:25.280 ,1,0,0.,12.0,0.,12.0,0.,12.0,0.,12.0
1980-11-15 07:07:37.280 ,1,0,0.,12.0,0.,12.0,0.,12.0,0.,12.0
1980-11-15 07:07:49.280 ,2,1,0.,12.0,0.,12.0,0.,12.0,0.,12.0
1980-11-15 07:08:01.280 ,2,1,0.,12.0,0.,12.0,0.,12.0,0.,12.0
1980-11-15 07:08:13.280 ,2,0,0.,12.0,0.,12.0,0.,12.0,0.,12.0
1980-11-15 07:08:25.280 ,2,0,0.,12.0,0.,12.0,0.,12.0,0.,12.0
1980-11-15 07:08:37.280 ,3,1,0.,12.0,0.,12.0,0.,12.0,0.,12.0
1980-11-15 07:08:49.280 ,3,1,0.,12.0,0.,12.0,0.,12.0,0.,12.0
1980-11-15 07:09:01.280 ,3,0,0.,12.0,0.,12.0,0.,12.0,0.,12.0
1980-11-15 07:09:13.280 ,3,0,0.,12.0,0.,12.0,0.,12.0,0.,12.0
1980-11-15 07:09:25.280 ,4,1,0.,12.0,0.,12.0,0.,12.0,0.,12.0
1980-11-15 07:09:37.280 ,4,1,0.,12.0,1.,12.0,0.,12.0,0.,12.0
1980-11-15 07:09:49.280 ,4,0,0.,12.0,0.,12.0,0.,12.0,0.,12.0
1980-11-15 07:10:01.280 ,4,0,0.,12.0,0.,12.0,0.,12.0,0.,12.0
1980-11-15 07:10:13.280 ,5,1,0.,12.0,0.,12.0,0.,12.0,0.,12.0
1980-11-15 07:10:25.280 ,5,1,0.,12.0,0.,12.0,0.,12.0,0.,12.0
1980-11-15 07:10:37.280 ,5,0,0.,12.0,0.,12.0,0.,12.0,0.,12.0
1980-11-15 07:10:49.280 ,5,0,0.,12.0,0.,12.0,0.,12.0,0.,12.0
1980-11-15 07:11:01.280 ,6,1,0.,12.0,0.,12.0,0.,12.0,0.,12.0
1980-11-15 07:11:13.280 ,6,1,0.,12.0,0.,12.0,0.,12.0,0.,12.0
1980-11-15 07:11:25.280 ,6,0,0.,12.0,0.,12.0,0.,12.0,0.,12.0
1980-11-15 07:11:37.280 ,6,0,0.,12.0,0.,12.0,0.,12.0,0.,12.0
1980-11-15 07:11:49.280 ,7,1,0.,12.0,0.,12.0,0.,12.0,0.,12.0
1980-11-15 07:12:01.280 ,7,1,0.,12.0,2.,12.0,0.,12.0,0.,12.0
1980-11-15 07:12:13.280 ,7,0,0.,12.0,5.,12.0,0.,12.0,0.,12.0
1980-11-15 07:12:25.280 ,7,0,0.,12.0,4.,12.0,0.,12.0,0.,12.0
1980-11-15 07:12:37.280 ,7,1,0.,12.0,3.,12.0,0.,12.0,0.,12.0
1980-11-15 07:12:49.280 ,7,1,0.,12.0,2.,12.0,0.,12.0,0.,12.0
1980-11-15 07:13:01.280 ,7,0,0.,12.0,4.,12.0,0.,12.0,0.,12.0
1980-11-15 07:13:13.280 ,7,0,0.,12.0,0.,12.0,0.,12.0,0.,12.0
1980-11-15 07:13:25.280 ,6,1,0.,12.0,9.,12.0,0.,12.0,0.,12.0
1980-11-15 07:13:37.280 ,6,1,0.,12.0,2.,12.0,0.,12.0,0.,12.0
1980-11-15 07:13:49.280 ,6,0,0.,12.0,0.,12.0,0.,12.0,0.,12.0
1980-11-15 07:14:01.280 ,6,0,0.,12.0,0.,12.0,0.,12.0,0.,12.0
1980-11-15 07:14:13.290 ,5,1,0.,12.0,0.,12.0,0.,12.0,0.,12.0
1980-11-15 07:14:25.290 ,5,1,0.,12.0,0.,12.0,0.,12.0,0.,12.0
1980-11-15 07:14:37.290 ,5,0,0.,12.0,0.,12.0,0.,12.0,0.,12.0
1980-11-15 07:14:49.290 ,5,0,0.,12.0,0.,12.0,0.,12.0,0.,12.0
1980-11-15 07:15:01.290 ,4,1,0.,12.0,0.,12.0,0.,12.0,0.,12.0
1980-11-15 07:15:13.290 ,4,1,0.,12.0,0.,12.0,0.,12.0,0.,12.0
1980-11-15 07:15:25.290 ,4,0,0.,12.0,0.,12.0,0.,12.0,0.,12.0
1980-11-15 07:15:37.290 ,4,0,0.,12.0,0.,12.0,0.,12.0,0.,12.0
1980-11-15 07:15:49.290 ,3,1,0.,12.0,0.,12.0,0.,12.0,0.,12.0
1980-11-15 07:16:01.290 ,3,1,0.,12.0,0.,12.0,0.,12.0,0.,12.0
1980-11-15 07:16:13.290 ,3,0,0.,12.0,0.,12.0,0.,12.0,0.,12.0
1980-11-15 07:16:25.290 ,3,0,0.,12.0,0.,12.0,0.,12.0,0.,12.0
1980-11-15 07:16:37.290 ,2,1,0.,12.0,0.,12.0,0.,12.0,0.,12.0
1980-11-15 07:16:49.290 ,2,1,0.,12.0,0.,12.0,0.,12.0,1.,12.0
1980-11-15 07:17:01.290 ,2,0,0.,12.0,0.,12.0,0.,12.0,0.,12.0
1980-11-15 07:17:13.290 ,2,0,0.,12.0,0.,12.0,0.,12.0,0.,12.0
1980-11-15 07:17:25.280 ,1,1,0.,12.0,0.,12.0,0.,12.0,0.,12.0
1980-11-15 07:17:37.280 ,1,1,0.,12.0,0.,12.0,0.,12.0,0.,12.0
1980-11-15 07:17:49.280 ,1,0,0.,12.0,0.,12.0,0.,12.0,0.,12.0
1980-11-15 07:18:01.280 ,1,0,0.,12.0,0.,12.0,0.,12.0,0.,12.0
1980-11-15 07:18:13.280 ,0,1,0.,12.0,0.,12.0,0.,12.0,0.,12.0
1980-11-15 07:18:25.280 ,0,1,0.,12.0,0.,12.0,0.,12.0,0.,12.0
1980-11-15 07:18:37.280 ,0,0,0.,12.0,0.,12.0,0.,12.0,0.,12.0
1980-11-15 07:18:49.280 ,0,0,0.,12.0,0.,12.0,0.,12.0,0.,12.0